Regional Weather Roundup
Issued by NWS

Home | Current Version | Previous Version | Graphics & Text | Print | Product List | Glossary On
Versions: 1 2 3 4 5 6 7 8 9 10 11 12 13 14 15 16 17 18 19 20 21 22 23 24 25 26 27 28 29 30 31 32 33 34 35 36 37 38 39 40 41 42 43 44 45 46 47 48 49 50
000
ASUS45 KSLC 041410
RWRUT

UTAH REGIONAL WEATHER ROUNDUP
NATIONAL WEATHER SERVICE SALT LAKE CITY UT
800 AM MDT FRI SEP 04 2015

UTZ001>011-023>025-041500-

NORTHERN UTAH

CITY           SKY/WX    TMP DP  RH WIND       PRES   REMARKS
BRIGHAM CITY   PTSUNNY   63  43  48 CALM      29.86R
HILL AFB       MOSUNNY   71  36  27 S18       29.87R
LOGAN          SUNNY     53  46  77 E5        29.87R
OGDEN          MOSUNNY   73  35  25 S17G29    29.85R
PROVO AIRPORT  MOSUNNY   61  36  39 E10       29.92
SALT LAKE CITY PTSUNNY   73  37  27 S15       29.86R
VERNAL         MOSUNNY   59  41  51 W3        30.01R
WENDOVER       CLEAR     61  37  41 NE6       29.85R
HEBER CITY     SUNNY     68  32  26 S6        29.97R
WEST JORDAN    SUNNY     68  37  32 S10       29.90R

$$

UTZ012>022-026-027-041500-

SOUTHERN/CENTRAL UTAH

CITY           SKY/WX    TMP DP  RH WIND       PRES   REMARKS
BLANDING       CLOUDY    62  48  61 N3        30.18R
BRYCE CANYON   MOSUNNY   44  37  76 VRB3      30.17R
CEDAR CITY     SUNNY     64  41  42 S12       30.00S
DELTA          SUNNY     59  31  35 S8        29.93S
HANKSVILLE     MOSUNNY   68  45  42 E6        29.98R
MILFORD        SUNNY     65  37  35 S17       29.96R
MOAB/CYNLANDS  SUNNY     70  46  42 NE3       29.96R
PRICE          SUNNY     61  35  37 E8        30.03R
ST GEORGE      SUNNY     73  48  40 SE13      29.89R
KANAB          SUNNY     57  54  88 CALM      30.09R

$$

REGIONAL REPORTS     COLORADO/ARIZONA

CITY           SKY/WX    TMP DP  RH WIND       PRES   REMARKS
CRAIG, CO      MOSUNNY   49  44  83 SW5       30.11R
GRAND JUNCTION PTSUNNY   66  50  56 SE18G24   30.01R
RIFLE          CLOUDY    57  50  77 SE3       30.09S
MONTROSE       CLOUDY    59  48  67 S7        30.13R
CORTEZ         PTSUNNY   60  49  66 CALM      30.12R
PAGE, AZ       MOSUNNY   71  52  50 S5        29.98R
GRAND CANYON   SUNNY     52  50  93 CALM      30.16R
KINGMAN        CLEAR     69  57  65 SE8       29.94R
FLAGSTAFF      CLOUDY    51  49  92 CALM      30.19R

$$

REGIONAL REPORTS    NEVADA/IDAHO/WYOMING

CITY           SKY/WX    TMP DP  RH WIND       PRES   REMARKS
LAS VEGAS, NV  PTCLDY    78  45  30 S10       29.78R
ELY            CLEAR     56  29  35 S21       29.94S
ELKO           CLEAR     47  34  60 E5        29.89R
POCATELLO, ID  SUNNY     52  37  56 SW8       29.91R
BURLEY         MOCLDY    50  41  71 SW3       29.88R
EVANSTON, WY   MOSUNNY   58  30  34 S9        30.05R
ROCK SPRINGS   SUNNY     58  37  45 S5        30.07R
KEMMERER       PTSUNNY   55  30  38 SE6       30.07R

$$



USA.gov is the U.S. government's official web portal to all federal, state and local government web resources and services.